Home > Weather > Plauen > Past weeks

Flag for Germany Weather for the Past 2 Weeks in Plauen, Saxony, Germany

Now
32 °F

Ice fog.


Feels Like: 32 °F
Forecast: 40 / 49 °F
Wind: 1 mph from North

Location: Karlovy Vary Airport

Current Time: Feb 7, 2016 at 7:35:51 AM

Latest Report: Feb 7, 2016 at 7:00 AM


Visibility: 0 mi

Pressure: 29.74 "Hg

Humidity: 93%

Dew point: 30 °F

Location of PlauenLocation

Historic Weather in Plauen — Graph

°F

Plauen Temperature Yesterday

Maximum temperature yesterday: 45 °F (at 11:30 AM)
Minimum temperature yesterday: 32 °F (at 7:30 AM)
Average temperature yesterday: 39 °F

High & Low Weather Summary for the Past Weeks

 TemperatureHumidityPressure
High50 °F (Jan 27, 1:00 PM)100% (Jan 23, 1:30 PM)30.51 "Hg (Jan 23, 1:30 PM)
Low18 °F (Jan 23, 6:00 AM)46% (Jan 29, 2:30 PM)29.71 "Hg (Jan 30, 8:00 PM)
Average38 °F85%30.12 "Hg
* Reported Jan 23 6:00 AM — Feb 7 6:30 AM, Plauen, Weather by CustomWeather, © 2016

Note: Actual official high and low records may vary slightly from our data, if they occured in-between our weather recording intervals... More about our weather records

Advertising

Plauen Weather History for the Previous 24 Hours

 ConditionsComfort  
Time TempWeatherWind HumidityBarometerVisibility
6:30 AM
Sun, Feb 7
32 °FIce fog.5 mph93%29.74 "Hg0 mi
6:00 AM32 °FIce fog.1 mph93%29.77 "Hg1 mi
5:00 AM32 °FFog.1 mph100%29.77 "Hg1 mi
4:00 AM34 °FFog.5 mph93%29.77 "Hg1 mi
3:00 AM34 °FFog.2 mph93%29.77 "Hg0 mi
2:00 AM32 °FIce fog.5 mph93%29.80 "Hg2 mi
1:00 AM32 °FClear.3 mph93%29.80 "Hg10 mi
12:00 AM34 °FClear.5 mph93%29.83 "Hg10 mi
11:00 PM
Sat, Feb 6
32 °FClear.2 mph100%29.86 "Hg10 mi
10:00 PM36 °FClear.5 mph93%29.89 "Hg10 mi
9:00 PM36 °FPassing clouds.5 mph93%29.92 "HgN/A
8:00 PM37 °FPassing clouds.3 mph87%29.92 "HgN/A
7:30 PM37 °FClear.5 mph87%29.92 "Hg10 mi
7:00 PM37 °FClear.5 mph87%29.95 "Hg10 mi
6:30 PM36 °FClear.6 mph93%29.95 "Hg10 mi
6:00 PM37 °FPassing clouds.3 mph87%29.95 "HgN/A
5:30 PM39 °FPassing clouds.3 mph87%29.95 "HgN/A
5:00 PM41 °FSunny.3 mph81%29.95 "Hg10 mi
4:30 PM43 °FSunny.2 mph76%29.98 "Hg10 mi
4:00 PM45 °FSunny.1 mph76%29.98 "Hg10 mi
3:30 PM45 °FSunny.2 mph76%30.01 "Hg10 mi
3:00 PM45 °FSunny.3 mph81%30.01 "Hg10 mi
2:30 PM45 °FPassing clouds.5 mph76%30.01 "HgN/A
2:00 PM45 °FPassing clouds.6 mph71%30.01 "HgN/A
1:30 PM45 °FSunny.5 mph76%30.04 "Hg10 mi
1:00 PM45 °FPassing clouds.5 mph71%30.04 "HgN/A
12:30 PM45 °FPassing clouds.5 mph71%30.04 "HgN/A
12:00 PM45 °FPassing clouds.5 mph76%30.07 "HgN/A
11:30 AM45 °FPassing clouds.5 mph71%30.09 "HgN/A
11:00 AM43 °FPassing clouds.3 mph76%30.09 "HgN/A
10:30 AM41 °FPassing clouds.3 mph81%30.09 "HgN/A
10:00 AM39 °FSunny.2 mph87%30.09 "Hg10 mi
9:30 AM37 °FSunny.2 mph87%30.09 "Hg10 mi
9:00 AM37 °FSunny.2 mph87%30.09 "Hg10 mi
8:30 AM36 °FSunny.2 mph93%30.09 "Hg10 mi
8:00 AM34 °FSunny.3 mph100%30.12 "Hg10 mi
7:30 AM32 °FPassing clouds.3 mph100%30.12 "HgN/A
7:00 AM34 °FPassing clouds.3 mph93%30.12 "HgN/A
Weather by CustomWeather, © 2016

See weather overviewHow to use our weather pages